TimeEST,TemperatureF,Dew PointF,Humidity,Sea Level PressureIn,VisibilityMPH,Wind Direction,Wind SpeedMPH,Gust SpeedMPH,PrecipitationIn,Events,Conditions,WindDirDegrees,DateUTC
12:03 AM,33.8,33.8,100,29.80,0.2,Calm,Calm,-,N/A,Fog,Fog,0,2013-02-24 05:03:00
12:14 AM,35.6,33.8,93,29.80,0.5,Calm,Calm,-,N/A,Fog,Fog,0,2013-02-24 05:14:00
12:29 AM,35.6,33.8,93,29.79,0.5,Calm,Calm,-,N/A,Fog,Fog,0,2013-02-24 05:29:00
12:53 AM,34.0,33.1,96,29.83,0.5,Calm,Calm,-,N/A,Fog,Fog,0,2013-02-24 05:53:00
1:13 AM,33.8,33.8,100,29.78,0.2,Calm,Calm,-,N/A,Fog,Fog,0,2013-02-24 06:13:00
1:28 AM,33.8,33.8,100,29.77,1.0,Calm,Calm,-,N/A,,Overcast,0,2013-02-24 06:28:00
1:32 AM,33.8,33.8,100,29.77,4.0,Calm,Calm,-,N/A,,Overcast,0,2013-02-24 06:32:00
1:53 AM,35.1,33.1,92,29.81,7.0,Calm,Calm,-,N/A,,Overcast,0,2013-02-24 06:53:00
2:11 AM,33.8,32.0,93,29.76,1.8,Calm,Calm,-,N/A,,Overcast,0,2013-02-24 07:11:00
2:18 AM,33.8,32.0,93,29.77,0.5,WNW,3.5,-,N/A,Fog,Fog,300,2013-02-24 07:18:00
2:25 AM,33.8,30.2,87,29.77,0.2,WNW,3.5,-,N/A,Fog,Fog,300,2013-02-24 07:25:00
2:42 AM,33.8,30.2,87,29.77,0.2,West,5.8,-,N/A,Fog,Fog,280,2013-02-24 07:42:00
2:53 AM,32.0,30.9,96,29.82,0.2,WNW,5.8,-,N/A,Fog,Fog,290,2013-02-24 07:53:00
3:04 AM,32.0,30.2,93,29.77,0.2,NW,5.8,-,N/A,Fog,Fog,310,2013-02-24 08:04:00
3:29 AM,32.0,30.2,93,29.78,1.0,NNW,8.1,-,N/A,,Mist,330,2013-02-24 08:29:00
3:38 AM,32.0,30.2,93,29.77,2.0,NNW,9.2,-,N/A,,Overcast,330,2013-02-24 08:38:00
3:42 AM,32.0,30.2,93,29.77,1.0,NNW,10.4,-,N/A,,Mist,330,2013-02-24 08:42:00
3:46 AM,30.2,30.2,100,29.77,0.5,NNW,6.9,-,N/A,Fog,Light Freezing Fog,330,2013-02-24 08:46:00
3:53 AM,30.9,30.0,96,29.82,0.2,NNW,8.1,-,N/A,Fog,Light Freezing Fog,330,2013-02-24 08:53:00
4:18 AM,30.2,28.4,93,29.77,1.0,NNW,9.2,-,N/A,,Mist,340,2013-02-24 09:18:00
4:24 AM,30.2,28.4,93,29.77,0.8,NNW,8.1,-,N/A,,Mist,330,2013-02-24 09:24:00
4:45 AM,30.2,28.4,93,29.77,1.5,North,9.2,-,N/A,,Overcast,360,2013-02-24 09:45:00
4:53 AM,30.0,28.0,92,29.82,2.5,North,8.1,-,N/A,,Overcast,10,2013-02-24 09:53:00
5:01 AM,30.2,28.4,93,29.77,4.0,North,8.1,-,N/A,,Overcast,10,2013-02-24 10:01:00
5:39 AM,28.4,26.6,93,29.77,8.0,North,9.2,-,N/A,,Overcast,360,2013-02-24 10:39:00
5:53 AM,28.0,24.1,85,29.82,10.0,North,9.2,-,N/A,,Overcast,10,2013-02-24 10:53:00
6:26 AM,28.4,23.0,80,29.79,10.0,North,6.9,-,N/A,,Overcast,350,2013-02-24 11:26:00
6:53 AM,28.0,23.0,81,29.84,10.0,North,8.1,-,N/A,,Overcast,360,2013-02-24 11:53:00
7:53 AM,28.9,24.1,82,29.83,10.0,North,5.8,-,N/A,,Overcast,350,2013-02-24 12:53:00
8:53 AM,28.9,21.9,75,29.83,10.0,NNW,6.9,-,N/A,,Overcast,340,2013-02-24 13:53:00
9:53 AM,28.9,21.0,72,29.83,10.0,NNW,8.1,-,N/A,,Overcast,340,2013-02-24 14:53:00
10:46 AM,28.4,21.2,74,29.80,2.0,NW,6.9,-,0.00,Snow,Light Snow,320,2013-02-24 15:46:00
10:53 AM,28.0,21.9,78,29.85,2.0,NW,6.9,-,0.00,Snow,Light Snow,320,2013-02-24 15:53:00
10:55 AM,28.4,21.2,74,29.80,1.8,NW,8.1,-,0.00,Snow,Light Snow,320,2013-02-24 15:55:00
11:08 AM,28.4,23.0,80,29.80,2.0,NNW,5.8,-,0.00,Snow,Light Snow,340,2013-02-24 16:08:00
11:15 AM,28.4,23.0,80,29.80,2.0,NNW,6.9,-,0.00,Snow,Light Snow,330,2013-02-24 16:15:00
11:24 AM,28.4,23.0,80,29.80,1.0,NNW,6.9,-,0.00,Snow,Light Snow,340,2013-02-24 16:24:00
11:40 AM,26.6,23.0,86,29.81,1.0,NNW,8.1,-,0.00,Snow,Light Snow,330,2013-02-24 16:40:00
11:53 AM,27.0,23.0,85,29.86,1.0,NW,6.9,-,0.00,Snow,Light Snow,320,2013-02-24 16:53:00
12:05 PM,28.4,21.2,74,29.80,7.0,WNW,6.9,-,0.00,,Overcast,300,2013-02-24 17:05:00
12:19 PM,28.4,21.2,74,29.80,10.0,WNW,5.8,-,0.00,,Overcast,300,2013-02-24 17:19:00
12:35 PM,28.4,19.4,69,29.80,10.0,NW,6.9,-,0.00,,Overcast,310,2013-02-24 17:35:00
12:53 PM,28.9,19.9,69,29.85,9.0,WNW,9.2,-,0.00,Snow,Light Snow,290,2013-02-24 17:53:00
1:34 PM,28.4,19.4,69,29.81,7.0,NW,9.2,-,0.00,Snow,Light Snow,310,2013-02-24 18:34:00
1:53 PM,28.9,19.9,69,29.86,10.0,NW,8.1,-,0.00,,Overcast,310,2013-02-24 18:53:00
2:06 PM,28.4,21.2,74,29.81,2.5,WNW,8.1,-,0.00,Snow,Light Snow,300,2013-02-24 19:06:00
2:38 PM,28.4,23.0,80,29.81,1.2,NW,9.2,16.1,0.00,Snow,Light Snow,320,2013-02-24 19:38:00
2:53 PM,28.0,21.9,78,29.86,1.2,NW,11.5,-,0.01,Snow,Light Snow,320,2013-02-24 19:53:00
3:03 PM,26.6,23.0,86,29.82,0.8,NW,10.4,23.0,0.00,Snow,Light Snow,310,2013-02-24 20:03:00
3:13 PM,26.6,23.0,86,29.82,1.0,NW,8.1,16.1,0.00,Snow,Light Snow,310,2013-02-24 20:13:00
3:20 PM,26.6,21.2,80,29.82,8.0,WNW,8.1,-,0.00,,Overcast,300,2013-02-24 20:20:00
3:28 PM,28.4,21.2,74,29.82,10.0,NW,8.1,-,0.00,,Overcast,320,2013-02-24 20:28:00
3:42 PM,28.4,21.2,74,29.83,5.0,NW,8.1,-,0.00,Snow,Light Snow,310,2013-02-24 20:42:00
3:53 PM,27.0,21.9,81,29.89,6.0,NW,10.4,17.3,0.00,,Haze,320,2013-02-24 20:53:00
4:12 PM,26.6,19.4,74,29.83,7.0,NW,11.5,19.6,0.00,Snow,Light Snow,310,2013-02-24 21:12:00
4:53 PM,28.0,19.0,69,29.91,10.0,NW,10.4,-,0.00,,Overcast,310,2013-02-24 21:53:00
5:40 PM,26.6,19.4,74,29.87,9.0,WNW,9.2,21.9,0.00,,Overcast,300,2013-02-24 22:40:00
5:53 PM,27.0,19.0,72,29.94,10.0,NW,9.2,18.4,0.00,,Overcast,320,2013-02-24 22:53:00
6:38 PM,26.6,19.4,74,29.90,9.0,NW,8.1,16.1,0.00,,Overcast,310,2013-02-24 23:38:00
6:53 PM,26.1,19.9,78,29.97,10.0,WNW,5.8,-,0.00,,Overcast,300,2013-02-24 23:53:00
7:16 PM,24.8,19.4,80,29.91,10.0,WNW,6.9,-,N/A,,Partly Cloudy,300,2013-02-25 00:16:00
7:53 PM,25.0,19.9,81,29.99,10.0,WNW,5.8,-,N/A,,Mostly Cloudy,290,2013-02-25 00:53:00
8:53 PM,26.1,21.0,81,30.00,7.0,WNW,8.1,-,0.00,Snow,Light Snow,300,2013-02-25 01:53:00
9:11 PM,26.6,21.2,80,29.94,6.0,NW,5.8,-,0.00,Snow,Light Snow,310,2013-02-25 02:11:00
9:33 PM,26.6,21.2,80,29.95,6.0,WNW,6.9,-,0.00,Snow,Light Snow,300,2013-02-25 02:33:00
9:53 PM,26.1,21.0,81,30.01,10.0,NW,6.9,-,0.00,,Overcast,310,2013-02-25 02:53:00
10:10 PM,26.6,21.2,80,29.95,10.0,WNW,6.9,-,N/A,,Overcast,300,2013-02-25 03:10:00
10:53 PM,26.1,21.0,81,30.02,10.0,WNW,5.8,-,N/A,,Overcast,300,2013-02-25 03:53:00
11:53 PM,27.0,21.9,81,30.02,9.0,WNW,9.2,-,N/A,,Overcast,290,2013-02-25 04:53:00